World > North America > United States > Illinois > Baden Baden  

Baden Baden, IL Hourly Weather Updates

Feedback E-mail the Weather

Quick Clicks

Baden Baden, IL Weather Maps

°F °C°F °C
Baden Baden Weather Map
UTC Time: 4/25/2024, 02:31
Your Time:

Baden Baden, IL Regional Weather

Expires:202404250300;;324091
ASUS43 KLOT 250210
RWRIL 

ILLINOIS REGIONAL WEATHER ROUNDUP
NATIONAL WEATHER SERVICE CHICAGO/ROMEOVILLE IL
900 PM CDT WED APR 24 2024

NOTE: "FAIR" INDICATES FEW OR NO CLOUDS BELOW 12,000 FEET WITH NO
SIGNIFICANT WEATHER AND/OR OBSTRUCTIONS TO VISIBILITY.

* THESE STATIONS ARE NOT UNDER NWS QUALITY CONTROL. THEY ALSO MAY NOT
  REPORT WEATHER SUCH AS PRECIPITATION OR FOG.


ILZ064>066-069>071-074>076-080>082-084>086-088>090-092>094-250300-
SOUTH-CENTRAL ILLINOIS
  
CITY           SKY/WX    TMP DP  RH WIND       PRES   REMARKS
CARBONDALE     CLEAR     55  45  68 NE7       30.20R TC  13           
CAIRO*         CLEAR     63  47  55 E10       30.18R TC  17           
EFFINGHAM*     CLEAR     41  38  90 CALM      30.26S TC   5           
MARION         CLEAR     53  43  68 NE6       30.21S TC  12           
MT. VERNON     CLEAR     49  44  83 NE5       30.23S TC   9           
CENTRALIA*     CLEAR     52  43  73 NE6       30.23S TC  11           
SALEM*         CLEAR     51  43  75 NE6       30.23S TC  11           
METROPOLIS*    CLEAR     59  42  54 N5        30.19S TC  15           
$$


SKY/WX - Weather  TMP - Temperature  DP - Dew Point  RH - Humidity
WIND - Wind Direction/Speed PRES - Barometric Pressure VSB - Visibility
WCI - Wind Chill Index E13G22 Wind - East Wind 13 mph/Gusts of 22 mph

Trending Headlines

Trending Entertainment Headlines

Baden Baden Radar Loop

Use the map search tool if you want to place a location marker on the radar map...

Baden Baden Quick Facts

National Two Day Weather Forecast


E-mail the Baden Baden Weather Forecast

Voice your opinion or tell us about page issues...